This demonstration page uses our WeatherBlox Daily Observations layout. Learn more.

41.55636, -103.73856

Hourly Observations for January 21, 2018

Temp ( °F °C ) Dew Point ( °F °C ) Humidity (%) Winds ( mph kmh ) Pressure ( in mb ) Visibility ( mi km ) Precip ( " mm )
12:33 am 00:33 Cloudy with Mist and Fog 31 -0.6 30 -1.1 96 96 NE 12 19 30 1016 5 8.04672 0 0
12:49 am 00:49 Cloudy with Mist and Fog 30 -1 30 -1 100 100 NE 10 17 30.03 1017 5 8.04672 0 0
12:53 am 00:53 Cloudy with Mist and Fog 31 -0.6 30 -1.1 96 96 NE 13 20 29.91 1013 6 9.656064 0 0
1:06 am 01:06 Cloudy 31 -0.6 30 -1.1 96 96 NE 13 20 30 1016 8 12.874752 0 0
1:53 am 01:53 Cloudy 31 -0.6 29 -1.7 92 92 NE 15 24 29.91 1013 10 16.09344 0 0
2:38 am 02:38 Cloudy with Light Snow 30 -1 28 -2 93 93 NE 13 20 30.03 1017 4 6.437376 0 0
2:51 am 02:51 Cloudy with Light Snow 30 -1 28 -2 93 93 NE 14 22 30.03 1017 2.5 4.02336 0.001 0.001
2:53 am 02:53 Cloudy with Light Snow 31 -0.6 29 -1.7 92 92 NE 14 22 29.94 1014 2 3.218688 0.001 0.001
3:11 am 03:11 Cloudy with Light Snow 31 -0.6 29 -1.7 92 92 NNE 14 22 30 1016 1.25 2.01168 0.001 0.001
3:26 am 03:26 Mostly Cloudy with Scattered Snow Showers 30 -1 28 -2 93 93 NNE 17 28 30.06 1018 0.75 1.207008 0 0
3:30 am 03:30 Cloudy with Light Snow 30 -1 28 -2 93 93 NNE 12 19 30.06 1018 1 1.609344 0 0
3:53 am 03:53 Cloudy with Light Snow 30 -1.1 28 -2.2 92 92 NNE 14 22 29.94 1014 1.25 2.01168 0.02 0.508
4:14 am 04:14 Cloudy with Light Snow 30 -1 28 -2 93 93 NNE 14 22 30.03 1017 2 3.218688 0 0
4:34 am 04:34 Cloudy with Light Snow 30 -1 27 -3 86 86 NNE 15 24 30.03 1017 3 4.828032 0 0
4:41 am 04:41 Cloudy with Light Snow 29 -1.7 27 -2.8 92 92 NNE 16 26 30.03 1017 4 6.437376 0.01 0.254
4:53 am 04:53 Cloudy with Light Snow 29 -1.7 27 -2.8 92 92 NNE 15 24 29.94 1014 6 9.656064 0.01 0.254
5:38 am 05:38 Cloudy with Light Snow 28 -2 27 -3 93 93 NE 18 30 30.03 1017 1.75 2.816352 0 0
5:45 am 05:45 Cloudy with Light Snow 28 -2 27 -3 93 93 NE 16 26 30.03 1017 1.75 2.816352 0 0
5:53 am 05:53 Cloudy with Light Snow 29 -1.7 27 -2.8 92 92 NNE 15 24 29.94 1014 2 3.218688 0.001 0.001
6:09 am 06:09 Windy with Snow Likely 29 -1.7 27 -2.8 92 92 NE 20 31 30.03 1017 1.75 2.816352 0.001 0.001
6:21 am 06:21 Cloudy with Light Snow 29 -1.7 26 -3.3 89 89 NNE 18 30 30.03 1017 2 3.218688 0.001 0.001
6:53 am 06:53 Cloudy with Light Snow 29 -1.7 26 -3.3 89 89 NNE 17 28 29.94 1014 3 4.828032 0.001 0.001
7:06 am 07:06 Cloudy with Light Snow 28 -2 27 -3 93 93 NNE 16 26 30.06 1018 3 4.828032 0 0
7:14 am 07:14 Cloudy with Light Snow 28 -2 27 -3 93 93 NNE 18 30 30.06 1018 2.5 4.02336 0 0
7:34 am 07:34 Windy with Snow Likely 29 -1.7 26 -3.3 89 89 NNE 21 33 30.03 1017 1.25 2.01168 0.001 0.001
7:53 am 07:53 Windy with Snow Likely 29 -1.7 26 -3.3 89 89 NNE 20 31 29.94 1014 2.5 4.02336 0.001 0.001
8:03 am 08:03 Windy with Snow Likely 29 -1.7 26 -3.3 89 89 NNE 21 33 30.06 1018 4 6.437376 0.001 0.001
8:26 am 08:26 Windy with Snow Likely 29 -1.7 26 -3.3 89 89 NNE 22 35 30.06 1018 5 8.04672 0.001 0.001
8:53 am 08:53 Cloudy with Light Wintry Mix 29 -1.7 26 -3.3 89 89 NNE 21 33 29.97 1015 7 11.265408 0.001 0.001
9:53 am 09:53 Cloudy with Light Wintry Mix 29 -1.7 25 -3.9 85 85 NNE 20 31 29.97 1015 8 12.874752 0.001 0.001
10:14 am 10:14 Windy with Snow Likely 29 -1.7 26 -3.3 89 89 NNE 23 37 30.06 1018 1.75 2.816352 0.001 0.001
10:25 am 10:25 Windy with Snow Likely 29 -1.7 26 -3.3 89 89 NNE 23 37 30.06 1018 1.75 2.816352 0.001 0.001
10:32 am 10:32 Windy with Snow Likely 28 -2 27 -3 93 93 NNE 23 37 30.06 1018 2 3.218688 0 0
10:41 am 10:41 Windy with Snow Likely 29 -1.7 26 -3.3 89 89 NNE 23 37 30.06 1018 1.5 2.414016 0.001 0.001
10:53 am 10:53 Windy with Snow Likely 29 -1.7 26 -3.3 89 89 NNE 21 33 29.97 1015 1.5 2.414016 0.001 0.001
11:24 am 11:24 Mostly Cloudy with Scattered Snow Showers 28 -2 27 -3 93 93 N 23 37 30.06 1018 0.5 0.804672 0 0
11:46 am 11:46 Windy with Snow Likely 29 -1.7 26 -3.3 89 89 N 21 33 30.06 1018 1.25 2.01168 0.01 0.254
11:53 am 11:53 Windy with Snow Likely 29 -1.7 26 -3.3 89 89 N 23 37 29.97 1015 1.5 2.414016 0.01 0.254
12:05 pm 12:05 Windy with Snow Likely 29 -1.7 26 -3.3 89 89 N 23 37 30.06 1018 1.5 2.414016 0.001 0.001
12:53 pm 12:53 Windy with Snow Likely 29 -1.7 25 -3.9 85 85 N 26 43 29.94 1014 1.5 2.414016 0.001 0.001
1:03 pm 13:03 Windy with Snow Likely 29 -1.7 26 -3.3 89 89 N 21 33 30.06 1018 1 1.609344 0.001 0.001
1:13 pm 13:13 Windy with Snow Likely 29 -1.7 25 -3.9 85 85 N 25 41 30.03 1017 1.25 2.01168 0.001 0.001
1:51 pm 13:51 Windy with Snow Likely 28 -2 25 -4 86 86 N 20 31 30.06 1018 2 3.218688 0.001 0.001
1:53 pm 13:53 Cloudy with Light Snow 29 -1.7 25 -3.9 85 85 N 18 30 29.97 1015 1.75 2.816352 0.001 0.001
2:14 pm 14:14 Windy with Snow Likely 29 -1.7 25 -3.9 85 85 N 20 31 30.06 1018 2.5 4.02336 0.001 0.001
2:31 pm 14:31 Windy with Snow Likely 29 -1.7 25 -3.9 85 85 N 22 35 30.06 1018 3 4.828032 0.001 0.001
2:41 pm 14:41 Cloudy with Light Wintry Mix 29 -1.7 24 -4.4 82 82 N 21 33 30.06 1018 7 11.265408 0.001 0.001
2:53 pm 14:53 Cloudy with Light Wintry Mix 29 -1.7 24 -4.4 82 82 N 21 33 30 1016 7 11.265408 0.001 0.001
3:53 pm 15:53 Cloudy with Light Snow 29 -1.7 25 -3.9 85 85 NNW 12 19 30.03 1017 2 3.218688 0.001 0.001
3:57 pm 15:57 Cloudy with Light Snow 29 -1.7 25 -3.9 85 85 NNW 12 19 30.09 1019 1.75 2.816352 0.001 0.001
4:06 pm 16:06 Cloudy with Light Snow 28 -2 25 -4 86 86 NNW 10 17 30.12 1020 2 3.218688 0 0
4:27 pm 16:27 Cloudy with Light Snow 28 -2.2 25 -3.9 88 88 NNW 12 19 30.12 1020 1 1.609344 0.001 0.001
4:35 pm 16:35 Cloudy with Snow 28 -2.2 26 -3.3 92 92 NW 9 15 30.12 1020 0.5 0.804672 0.001 0.001
4:49 pm 16:49 Cloudy with Light Snow 28 -2 27 -3 93 93 NW 13 20 30.12 1020 1 1.609344 0.01 0.254
4:53 pm 16:53 Cloudy with Light Snow 28 -2.2 26 -3.3 92 92 NW 15 24 30.03 1017 1.25 2.01168 0.01 0.254
5:08 pm 17:08 Cloudy with Light Snow 28 -2 25 -4 86 86 NW 17 28 30.12 1020 3 4.828032 0 0
5:41 pm 17:41 Cloudy with Light Snow 28 -2.2 26 -3.3 92 92 NW 16 26 30.12 1020 2.5 4.02336 0.001 0.001
5:51 pm 17:51 Windy with Snow Likely 28 -2 25 -4 86 86 NNW 21 33 30.12 1020 4 6.437376 0.001 0.001
5:53 pm 17:53 Windy with Snow Likely 28 -2.2 25 -3.9 88 88 NNW 21 33 30.03 1017 4 6.437376 0.001 0.001
6:53 pm 18:53 Cloudy 27 -2.8 24 -4.4 89 89 NW 20 31 30.03 1017 10 16.09344 0.001 0.001
7:53 pm 19:53 Cloudy 28 -2.2 23 -5 81 81 NW 17 28 30.03 1017 10 16.09344 0 0
8:53 pm 20:53 Cloudy 28 -2.2 22 -5.6 78 78 NNW 18 30 30.03 1017 10 16.09344 0 0
9:53 pm 21:53 Cloudy 28 -2.2 21 -6.1 75 75 NNW 16 26 30.03 1017 10 16.09344 0 0
10:53 pm 22:53 Cloudy 27 -2.8 20 -6.7 75 75 NW 21 33 30.03 1017 10 16.09344 0 0
11:53 pm 23:53 Mostly Cloudy 27 -2.8 20 -6.7 75 75 NNW 23 37 30 1016 10 16.09344 0 0

Powered by AerisWeather